| time (UTC) | temp F | wind direction | speed MPH | gust MPH | rain 1hr in | rain 24hr in | rain mn in | humidity % | barometer mb |
| 20260905125909 | 68 | 245 | 0.0 | 1.0 | 0.00 | 0.00 | 0.00 | 80 | 1015.0 |
| 20260905125851 | 68 | 245 | 0.0 | 1.0 | 0.00 | 0.00 | 0.00 | 81 | 1015.0 |
| 20260905124857 | 68 | 245 | 0.0 | 0.0 | 0.00 | 0.00 | 0.00 | 80 | 1015.0 |
| 20260905124610 | 68 | 245 | 0.0 | 0.0 | 0.00 | 0.00 | 0.00 | 80 | 1015.0 |
| 20260905123845 | 68 | 245 | 0.0 | 0.0 | 0.00 | 0.00 | 0.00 | 81 | 1014.8 |
| 20260905123339 | 68 | 245 | 0.0 | 1.0 | 0.00 | 0.00 | 0.00 | 82 | 1014.6 |
| 20260905122833 | 68 | 245 | 0.0 | 1.0 | 0.00 | 0.00 | 0.00 | 82 | 1014.7 |
| 20260905122549 | 68 | 245 | 0.0 | 1.0 | 0.00 | 0.00 | 0.00 | 82 | 1014.6 |
| 20260905121821 | 68 | 245 | 0.0 | 0.0 | 0.00 | 0.00 | 0.00 | 83 | 1014.5 |
| 20260905121537 | 68 | 245 | 0.0 | 0.0 | 0.00 | 0.00 | 0.00 | 83 | 1014.5 |
| 20260905120809 | 67 | 242 | 0.0 | 1.0 | 0.00 | 0.00 | 0.00 | 83 | 1014.4 |
| 20260905120304 | 67 | 242 | 0.0 | 3.0 | 0.00 | 0.00 | 0.00 | 84 | 1014.4 |
| 20260905115757 | 67 | 242 | 0.0 | 3.0 | 0.00 | 0.00 | 0.00 | 84 | 1014.3 |
| 20260905115510 | 67 | 239 | 0.0 | 3.0 | 0.00 | 0.00 | 0.00 | 84 | 1014.4 |
| 20260905114745 | 67 | 239 | 0.0 | 3.0 | 0.00 | 0.00 | 0.00 | 84 | 1014.4 |
| 20260905114253 | 67 | 302 | 0.0 | 0.0 | 0.00 | 0.00 | 0.00 | 85 | 1014.5 |
| 20260905113735 | 66 | 302 | 0.0 | 0.0 | 0.00 | 0.00 | 0.00 | 86 | 1014.6 |
| 20260905113227 | 66 | 302 | 0.0 | 0.0 | 0.00 | 0.00 | 0.00 | 87 | 1014.6 |
| 20260905112721 | 66 | 302 | 0.0 | 1.0 | 0.00 | 0.00 | 0.00 | 87 | 1014.7 |
| 20260905112215 | 66 | 302 | 0.0 | 1.0 | 0.00 | 0.00 | 0.00 | 88 | 1014.6 |
| 20260905111709 | 66 | 302 | 0.0 | 0.0 | 0.00 | 0.00 | 0.00 | 88 | 1014.7 |
| 20260905111204 | 66 | 302 | 0.0 | 0.0 | 0.00 | 0.00 | 0.00 | 88 | 1014.6 |
| 20260905110659 | 66 | 302 | 0.0 | 0.0 | 0.00 | 0.00 | 0.00 | 87 | 1014.5 |
| 20260905110153 | 66 | 302 | 0.0 | 0.0 | 0.00 | 0.00 | 0.00 | 87 | 1014.4 |
| 20260905105648 | 66 | 302 | 0.0 | 0.0 | 0.00 | 0.00 | 0.00 | 87 | 1014.3 |
| 20260905105139 | 66 | 302 | 0.0 | 0.0 | 0.00 | 0.00 | 0.00 | 86 | 1014.1 |
| 20260905104633 | 66 | 302 | 0.0 | 0.0 | 0.00 | 0.00 | 0.00 | 86 | 1014.0 |
| 20260905104127 | 66 | 302 | 0.0 | 0.0 | 0.00 | 0.00 | 0.00 | 86 | 1013.9 |
| 20260905103635 | 66 | 302 | 0.0 | 0.0 | 0.00 | 0.00 | 0.00 | 86 | 1013.9 |
| 20260905103115 | 66 | 302 | 0.0 | 0.0 | 0.00 | 0.00 | 0.00 | 86 | 1013.8 |
| 20260905102609 | 66 | 302 | 0.0 | 0.0 | 0.00 | 0.00 | 0.00 | 86 | 1013.8 |
| 20260905102110 | 66 | 302 | 0.0 | 0.0 | 0.00 | 0.00 | 0.00 | 86 | 1013.9 |
| 20260905101610 | 66 | 302 | 0.0 | 0.0 | 0.00 | 0.00 | 0.00 | 86 | 1013.9 |
| 20260905101107 | 67 | 302 | 0.0 | 0.0 | 0.00 | 0.00 | 0.00 | 85 | 1013.9 |
| 20260905100607 | 67 | 302 | 0.0 | 0.0 | 0.00 | 0.00 | 0.00 | 85 | 1013.9 |
| 20260905100111 | 67 | 302 | 0.0 | 0.0 | 0.00 | 0.00 | 0.00 | 84 | 1013.8 |
| 20260905095603 | 67 | 302 | 0.0 | 0.0 | 0.00 | 0.00 | 0.00 | 84 | 1013.7 |
| 20260905095101 | 67 | 302 | 0.0 | 0.0 | 0.00 | 0.00 | 0.00 | 85 | 1013.7 |
| 20260905094601 | 67 | 302 | 0.0 | 0.0 | 0.00 | 0.00 | 0.00 | 84 | 1013.7 |
| 20260905094059 | 67 | 302 | 0.0 | 0.0 | 0.00 | 0.00 | 0.00 | 85 | 1013.8 |
| 20260905093822 | 67 | 302 | 0.0 | 0.0 | 0.00 | 0.00 | 0.00 | 84 | 1013.7 |
| 20260905093059 | 67 | 302 | 0.0 | 0.0 | 0.00 | 0.00 | 0.00 | 84 | 1013.8 |
| 20260905092556 | 67 | 302 | 0.0 | 0.0 | 0.00 | 0.00 | 0.00 | 85 | 1013.6 |
| 20260905092056 | 67 | 302 | 0.0 | 0.0 | 0.00 | 0.00 | 0.00 | 84 | 1013.8 |
| 20260905091555 | 67 | 302 | 0.0 | 0.0 | 0.00 | 0.00 | 0.00 | 85 | 1013.9 |
| 20260905091052 | 67 | 302 | 0.0 | 0.0 | 0.00 | 0.00 | 0.00 | 85 | 1013.8 |
| 20260905090818 | 67 | 302 | 0.0 | 1.0 | 0.00 | 0.00 | 0.00 | 85 | 1013.7 |
| 20260905090104 | 67 | 302 | 0.0 | 1.0 | 0.00 | 0.00 | 0.00 | 85 | 1013.8 |
| 20260905085819 | 67 | 302 | 0.0 | 0.0 | 0.00 | 0.00 | 0.00 | 85 | 1013.7 |
| 20260905085051 | 67 | 302 | 0.0 | 3.0 | 0.00 | 0.00 | 0.00 | 87 | 1013.7 |
| 20260905084816 | 68 | 302 | 0.0 | 4.0 | 0.00 | 0.00 | 0.00 | 88 | 1013.6 |
| 20260905084051 | 68 | 288 | 0.0 | 4.0 | 0.00 | 0.00 | 0.00 | 89 | 1013.6 |
| 20260905083551 | 68 | 126 | 0.0 | 0.0 | 0.00 | 0.00 | 0.00 | 90 | 1013.7 |
| 20260905083311 | 68 | 126 | 0.0 | 0.0 | 0.00 | 0.00 | 0.00 | 90 | 1013.5 |
| 20260905082547 | 68 | 126 | 0.0 | 0.0 | 0.00 | 0.00 | 0.00 | 90 | 1013.5 |
| 20260905082048 | 68 | 126 | 0.0 | 0.0 | 0.00 | 0.00 | 0.00 | 90 | 1013.6 |
| 20260905081547 | 68 | 126 | 0.0 | 0.0 | 0.00 | 0.00 | 0.00 | 90 | 1013.6 |
| 20260905081312 | 68 | 126 | 0.0 | 0.0 | 0.00 | 0.00 | 0.00 | 90 | 1013.7 |
| 20260905080548 | 68 | 126 | 0.0 | 0.0 | 0.00 | 0.00 | 0.00 | 90 | 1013.7 |
| 20260905080058 | 68 | 126 | 0.0 | 0.0 | 0.00 | 0.00 | 0.00 | 90 | 1013.8 |
| 20260905075814 | 68 | 126 | 0.0 | 0.0 | 0.00 | 0.00 | 0.00 | 90 | 1013.9 |
| 20260905075043 | 68 | 126 | 0.0 | 0.0 | 0.00 | 0.00 | 0.00 | 89 | 1013.9 |
| 20260905074543 | 68 | 126 | 0.0 | 0.0 | 0.00 | 0.00 | 0.00 | 90 | 1014.0 |
| 20260905074306 | 69 | 126 | 0.0 | 0.0 | 0.00 | 0.00 | 0.00 | 89 | 1013.9 |
| 20260905073811 | 69 | 126 | 0.0 | 0.0 | 0.00 | 0.00 | 0.00 | 89 | 1013.9 |
| 20260905073040 | 69 | 126 | 0.0 | 0.0 | 0.00 | 0.00 | 0.00 | 89 | 1014.0 |
| 20260905072803 | 69 | 126 | 0.0 | 0.0 | 0.00 | 0.00 | 0.00 | 89 | 1014.0 |
| 20260905072028 | 69 | 126 | 0.0 | 0.0 | 0.00 | 0.00 | 0.00 | 89 | 1013.9 |
| 20260905071747 | 69 | 126 | 0.0 | 0.0 | 0.00 | 0.00 | 0.00 | 89 | 1014.0 |
| 20260905071500 | 69 | 126 | 0.0 | 0.0 | 0.00 | 0.00 | 0.00 | 89 | 1014.1 |
| 20260905070738 | 69 | 126 | 0.0 | 0.0 | 0.00 | 0.00 | 0.00 | 89 | 1014.1 |
| 20260905070004 | 69 | 126 | 0.0 | 0.0 | 0.00 | 0.00 | 0.00 | 89 | 1014.1 |
| 20260905065459 | 69 | 126 | 0.0 | 0.0 | 0.00 | 0.00 | 0.00 | 89 | 1014.2 |
| 20260905064953 | 69 | 126 | 0.0 | 0.0 | 0.00 | 0.00 | 0.00 | 89 | 1014.3 |
| 20260905064447 | 69 | 126 | 0.0 | 0.0 | 0.00 | 0.00 | 0.00 | 89 | 1014.3 |
| 20260905064208 | 69 | 126 | 0.0 | 0.0 | 0.00 | 0.00 | 0.00 | 89 | 1014.4 |
| 20260905063434 | 69 | 126 | 0.0 | 0.0 | 0.00 | 0.00 | 0.00 | 89 | 1014.4 |
| 20260905062928 | 69 | 126 | 0.0 | 0.0 | 0.00 | 0.00 | 0.00 | 89 | 1014.4 |
| 20260905062425 | 69 | 126 | 0.0 | 0.0 | 0.00 | 0.00 | 0.00 | 89 | 1014.5 |
| 20260905061917 | 69 | 126 | 0.0 | 0.0 | 0.00 | 0.00 | 0.00 | 89 | 1014.5 |
| 20260905061410 | 69 | 126 | 0.0 | 0.0 | 0.00 | 0.00 | 0.00 | 88 | 1014.5 |
| 20260905060904 | 69 | 126 | 0.0 | 0.0 | 0.00 | 0.00 | 0.00 | 88 | 1014.6 |
| 20260905060358 | 69 | 126 | 0.0 | 0.0 | 0.00 | 0.00 | 0.00 | 88 | 1014.7 |
| 20260905055852 | 69 | 126 | 0.0 | 0.0 | 0.00 | 0.00 | 0.00 | 88 | 1014.7 |
| 20260905055604 | 69 | 126 | 0.0 | 0.0 | 0.00 | 0.00 | 0.00 | 88 | 1014.7 |
| 20260905054841 | 69 | 126 | 0.0 | 0.0 | 0.00 | 0.00 | 0.00 | 88 | 1014.7 |
| 20260905054334 | 69 | 126 | 0.0 | 0.0 | 0.00 | 0.00 | 0.00 | 88 | 1014.7 |
| 20260905054048 | 69 | 126 | 0.0 | 0.0 | 0.00 | 0.00 | 0.00 | 88 | 1014.9 |
| 20260905053322 | 69 | 126 | 0.0 | 0.0 | 0.00 | 0.00 | 0.00 | 88 | 1014.8 |
| 20260905052821 | 69 | 126 | 0.0 | 0.0 | 0.00 | 0.00 | 0.00 | 88 | 1014.9 |
| 20260905052313 | 69 | 126 | 0.0 | 0.0 | 0.00 | 0.00 | 0.00 | 88 | 1014.9 |
| 20260905051805 | 69 | 126 | 0.0 | 0.0 | 0.00 | 0.00 | 0.00 | 88 | 1015.0 |
| 20260905051259 | 69 | 126 | 0.0 | 0.0 | 0.00 | 0.00 | 0.00 | 88 | 1014.9 |
| 20260905050757 | 70 | 126 | 0.0 | 0.0 | 0.00 | 0.00 | 0.00 | 88 | 1014.9 |
| 20260905050256 | 70 | 126 | 0.0 | 0.0 | 0.00 | 0.00 | 0.00 | 88 | 1014.9 |
| 20260905050018 | 70 | 126 | 0.0 | 0.0 | 0.00 | 0.00 | 0.00 | 88 | 1014.9 |
| 20260905045253 | 70 | 126 | 0.0 | 0.0 | 0.00 | 0.00 | 0.00 | 88 | 1015.0 |
| 20260905044751 | 69 | 126 | 0.0 | 0.0 | 0.00 | 0.00 | 0.00 | 88 | 1015.0 |
| 20260905044251 | 69 | 126 | 0.0 | 0.0 | 0.00 | 0.00 | 0.00 | 88 | 1015.1 |
| 20260905043751 | 70 | 126 | 0.0 | 1.0 | 0.00 | 0.00 | 0.00 | 88 | 1015.1 |
| 20260905043248 | 69 | 126 | 0.0 | 1.0 | 0.00 | 0.00 | 0.00 | 88 | 1015.1 |
| 20260905042747 | 69 | 126 | 0.0 | 1.0 | 0.00 | 0.00 | 0.00 | 88 | 1015.1 |
| 20260905042248 | 69 | 126 | 0.0 | 1.0 | 0.00 | 0.00 | 0.00 | 88 | 1015.1 |
| 20260905042014 | 69 | 126 | 0.0 | 0.0 | 0.00 | 0.00 | 0.00 | 88 | 1015.0 |
| 20260905041245 | 69 | 126 | 0.0 | 0.0 | 0.00 | 0.00 | 0.00 | 88 | 1014.9 |
| 20260905040756 | 69 | 126 | 0.0 | 2.0 | 0.00 | 0.00 | 0.00 | 88 | 1014.9 |
| 20260905040242 | 69 | 126 | 0.0 | 2.0 | 0.00 | 0.00 | 0.00 | 88 | 1014.9 |
| 20260905035742 | 69 | 126 | 0.0 | 0.0 | 0.00 | 0.00 | 0.00 | 89 | 1015.0 |
| 20260905035240 | 69 | 126 | 0.0 | 0.0 | 0.00 | 0.00 | 0.00 | 89 | 1015.0 |
| 20260905034741 | 69 | 126 | 0.0 | 0.0 | 0.00 | 0.00 | 0.00 | 89 | 1014.9 |
| 20260905034241 | 69 | 126 | 0.0 | 0.0 | 0.00 | 0.00 | 0.00 | 89 | 1014.8 |
| 20260905033736 | 69 | 126 | 0.0 | 0.0 | 0.00 | 0.00 | 0.00 | 89 | 1014.9 |
| 20260905033236 | 69 | 126 | 0.0 | 0.0 | 0.00 | 0.00 | 0.00 | 90 | 1014.8 |
| 20260905032737 | 69 | 126 | 0.0 | 0.0 | 0.00 | 0.00 | 0.00 | 90 | 1014.9 |
| 20260905032237 | 69 | 126 | 0.0 | 0.0 | 0.00 | 0.00 | 0.00 | 90 | 1014.8 |
| 20260905031737 | 69 | 126 | 0.0 | 0.0 | 0.00 | 0.00 | 0.00 | 90 | 1014.8 |
| 20260905031236 | 69 | 126 | 0.0 | 0.0 | 0.00 | 0.00 | 0.00 | 89 | 1014.7 |
| 20260905030737 | 69 | 126 | 0.0 | 0.0 | 0.00 | 0.00 | 0.00 | 89 | 1014.6 |
| 20260905030243 | 69 | 126 | 0.0 | 0.0 | 0.00 | 0.00 | 0.00 | 89 | 1014.7 |
| 20260905025737 | 69 | 126 | 0.0 | 0.0 | 0.00 | 0.00 | 0.00 | 89 | 1014.7 |
| 20260905025233 | 69 | 126 | 0.0 | 0.0 | 0.00 | 0.00 | 0.00 | 89 | 1014.6 |
| 20260905024732 | 69 | 126 | 0.0 | 0.0 | 0.00 | 0.00 | 0.00 | 89 | 1014.7 |
| 20260905024232 | 69 | 126 | 0.0 | 0.0 | 0.00 | 0.01 | 0.00 | 89 | 1014.6 |
| 20260905023731 | 69 | 126 | 0.0 | 0.0 | 0.00 | 0.01 | 0.00 | 89 | 1014.7 |
| 20260905023715 | 69 | 126 | 0.0 | 0.0 | 0.00 | 0.01 | 0.00 | 89 | 1014.8 |
| 20260905022730 | 69 | 126 | 0.0 | 0.0 | 0.00 | 0.02 | 0.00 | 89 | 1014.9 |
| 20260905022230 | 69 | 126 | 0.0 | 0.0 | 0.00 | 0.02 | 0.00 | 89 | 1014.9 |
| 20260905021728 | 69 | 126 | 0.0 | 0.0 | 0.00 | 0.03 | 0.00 | 88 | 1014.9 |
| 20260905021228 | 69 | 126 | 0.0 | 0.0 | 0.00 | 0.03 | 0.00 | 88 | 1014.9 |
| 20260905020727 | 69 | 126 | 0.0 | 0.0 | 0.00 | 0.03 | 0.00 | 89 | 1014.9 |
| 20260905020239 | 68 | 126 | 0.0 | 0.0 | 0.00 | 0.04 | 0.00 | 88 | 1014.9 |
| 20260905015722 | 68 | 126 | 0.0 | 0.0 | 0.00 | 0.04 | 0.00 | 88 | 1014.8 |
| 20260905015221 | 68 | 126 | 0.0 | 0.0 | 0.00 | 0.04 | 0.00 | 88 | 1014.8 |
| 20260905014715 | 69 | 126 | 0.0 | 0.0 | 0.00 | 0.04 | 0.00 | 87 | 1014.8 |
| 20260905014209 | 69 | 126 | 0.0 | 0.0 | 0.00 | 0.04 | 0.00 | 87 | 1014.7 |
| 20260905013704 | 69 | 126 | 0.0 | 0.0 | 0.00 | 0.05 | 0.00 | 87 | 1014.7 |
| 20260905013158 | 69 | 126 | 0.0 | 0.0 | 0.00 | 0.05 | 0.00 | 87 | 1014.8 |
| 20260905012653 | 69 | 126 | 0.0 | 0.0 | 0.00 | 0.05 | 0.00 | 87 | 1014.8 |
| 20260905012145 | 69 | 126 | 0.0 | 0.0 | 0.00 | 0.05 | 0.00 | 86 | 1014.7 |
| 20260905011639 | 69 | 126 | 0.0 | 0.0 | 0.00 | 0.05 | 0.00 | 86 | 1014.6 |
| 20260905011133 | 69 | 126 | 0.0 | 0.0 | 0.00 | 0.05 | 0.00 | 86 | 1014.6 |
| 20260905010627 | 69 | 126 | 0.0 | 0.0 | 0.00 | 0.05 | 0.00 | 85 | 1014.6 |
| 20260905010121 | 70 | 126 | 0.0 | 0.0 | 0.00 | 0.05 | 0.00 | 85 | 1014.5 |
| 20260905005837 | 70 | 126 | 0.0 | 0.0 | 0.00 | 0.05 | 0.00 | 85 | 1014.7 |
| 20260905005110 | 70 | 126 | 0.0 | 0.0 | 0.00 | 0.05 | 0.00 | 85 | 1014.7 |
| 20260905004603 | 70 | 126 | 0.0 | 0.0 | 0.00 | 0.05 | 0.00 | 84 | 1014.6 |
| 20260905004057 | 70 | 126 | 0.0 | 0.0 | 0.00 | 0.05 | 0.00 | 83 | 1014.6 |
| 20260905003813 | 71 | 126 | 0.0 | 0.0 | 0.00 | 0.05 | 0.00 | 83 | 1014.5 |
| 20260905003045 | 71 | 126 | 0.0 | 0.0 | 0.00 | 0.05 | 0.00 | 83 | 1014.4 |
| 20260905002539 | 71 | 126 | 0.0 | 0.0 | 0.00 | 0.05 | 0.00 | 82 | 1014.5 |
| 20260905002300 | 71 | 126 | 0.0 | 0.0 | 0.00 | 0.05 | 0.00 | 81 | 1014.5 |
| 20260905001528 | 72 | 126 | 0.0 | 0.0 | 0.00 | 0.05 | 0.00 | 81 | 1014.4 |
| 20260905001240 | 72 | 126 | 0.0 | 0.0 | 0.00 | 0.05 | 0.00 | 81 | 1014.4 |
| 20260905000515 | 72 | 126 | 0.0 | 0.0 | 0.00 | 0.05 | 0.00 | 80 | 1014.3 |
| 20260905000010 | 73 | 126 | 0.0 | 0.0 | 0.00 | 0.05 | 0.00 | 79 | 1014.2 |
| 20260904235732 | 73 | 126 | 0.0 | 0.0 | 0.00 | 0.05 | 0.00 | 79 | 1014.2 |
| 20260904234958 | 73 | 126 | 0.0 | 0.0 | 0.00 | 0.05 | 0.00 | 78 | 1014.1 |
| 20260904234451 | 74 | 126 | 0.0 | 0.0 | 0.00 | 0.05 | 0.00 | 77 | 1014.1 |
| 20260904233945 | 74 | 126 | 0.0 | 0.0 | 0.00 | 0.05 | 0.00 | 78 | 1014.2 |
| 20260904233440 | 74 | 126 | 0.0 | 0.0 | 0.00 | 0.06 | 0.00 | 76 | 1014.3 |
| 20260904232933 | 75 | 126 | 0.0 | 0.0 | 0.00 | 0.06 | 0.00 | 76 | 1014.4 |
| 20260904232646 | 75 | 126 | 0.0 | 0.0 | 0.00 | 0.06 | 0.00 | 76 | 1014.3 |
| 20260904232144 | 75 | 126 | 0.0 | 0.0 | 0.00 | 0.06 | 0.00 | 75 | 1014.4 |
| 20260904231416 | 75 | 126 | 0.0 | 0.0 | 0.00 | 0.06 | 0.00 | 74 | 1014.4 |
| 20260904230910 | 75 | 126 | 0.0 | 0.0 | 0.00 | 0.07 | 0.00 | 74 | 1014.3 |
| 20260904230404 | 76 | 126 | 0.0 | 0.0 | 0.00 | 0.07 | 0.00 | 73 | 1014.3 |
| 20260904225857 | 76 | 126 | 0.0 | 0.0 | 0.00 | 0.07 | 0.00 | 72 | 1014.2 |
| 20260904225351 | 77 | 126 | 0.0 | 0.0 | 0.00 | 0.07 | 0.00 | 71 | 1014.2 |
| 20260904224900 | 77 | 126 | 0.0 | 0.0 | 0.00 | 0.07 | 0.00 | 69 | 1014.1 |
| 20260904224605 | 78 | 126 | 0.0 | 0.0 | 0.00 | 0.07 | 0.00 | 68 | 1014.2 |
| 20260904223840 | 78 | 126 | 0.0 | 0.0 | 0.00 | 0.07 | 0.00 | 67 | 1014.2 |
| 20260904223600 | 78 | 126 | 0.0 | 0.0 | 0.00 | 0.07 | 0.00 | 66 | 1014.2 |
| 20260904222836 | 78 | 126 | 0.0 | 1.0 | 0.00 | 0.07 | 0.00 | 67 | 1014.2 |
| 20260904222335 | 79 | 126 | 0.0 | 1.0 | 0.00 | 0.07 | 0.00 | 67 | 1014.2 |
| 20260904221836 | 79 | 126 | 0.0 | 3.0 | 0.00 | 0.07 | 0.00 | 65 | 1014.1 |
| 20260904221334 | 79 | 126 | 0.0 | 3.0 | 0.00 | 0.07 | 0.00 | 65 | 1014.2 |
| 20260904221057 | 79 | 178 | 0.0 | 2.0 | 0.00 | 0.07 | 0.00 | 64 | 1014.2 |
| 20260904220331 | 79 | 178 | 0.0 | 2.0 | 0.00 | 0.07 | 0.00 | 64 | 1014.2 |
| 20260904215832 | 80 | 196 | 0.0 | 1.0 | 0.00 | 0.07 | 0.00 | 65 | 1014.2 |
| 20260904215329 | 80 | 195 | 0.0 | 1.0 | 0.00 | 0.07 | 0.00 | 63 | 1014.1 |
| 20260904214828 | 80 | 276 | 0.0 | 2.0 | 0.00 | 0.07 | 0.00 | 63 | 1014.0 |
| 20260904214328 | 80 | 276 | 0.0 | 3.0 | 0.00 | 0.07 | 0.00 | 63 | 1013.9 |
| 20260904213827 | 80 | 277 | 0.0 | 4.0 | 0.00 | 0.07 | 0.00 | 63 | 1014.0 |
| 20260904213327 | 80 | 286 | 0.0 | 4.0 | 0.00 | 0.07 | 0.00 | 62 | 1014.0 |
| 20260904212828 | 80 | 267 | 0.0 | 3.0 | 0.00 | 0.07 | 0.00 | 64 | 1013.9 |
| 20260904212327 | 80 | 271 | 0.0 | 4.0 | 0.00 | 0.07 | 0.00 | 63 | 1014.0 |
| 20260904211825 | 80 | 103 | 0.0 | 4.0 | 0.00 | 0.07 | 0.00 | 63 | 1014.0 |
| 20260904211325 | 80 | 163 | 0.0 | 4.0 | 0.00 | 0.07 | 0.00 | 64 | 1013.6 |
| 20260904210823 | 80 | 148 | 1.0 | 6.0 | 0.00 | 0.07 | 0.00 | 64 | 1014.1 |
| 20260904210554 | 80 | 278 | 0.0 | 6.0 | 0.00 | 0.07 | 0.00 | 64 | 1014.3 |
| 20260904210040 | 80 | 213 | 1.0 | 4.0 | 0.00 | 0.07 | 0.00 | 64 | 1014.4 |
| 20260904205323 | 80 | 248 | 0.0 | 4.0 | 0.00 | 0.07 | 0.00 | 63 | 1014.4 |
| 20260904204824 | 80 | 310 | 0.0 | 4.0 | 0.00 | 0.07 | 0.00 | 63 | 1014.5 |
| 20260904204550 | 80 | 282 | 0.0 | 2.0 | 0.00 | 0.07 | 0.00 | 65 | 1014.4 |
| 20260904203824 | 79 | 284 | 0.0 | 3.0 | 0.00 | 0.07 | 0.00 | 66 | 1014.4 |
| 20260904203323 | 79 | 284 | 0.0 | 3.0 | 0.00 | 0.07 | 0.00 | 68 | 1014.3 |
| 20260904202823 | 78 | 128 | 0.0 | 4.0 | 0.00 | 0.07 | 0.00 | 69 | 1014.6 |
| 20260904202323 | 78 | 184 | 0.0 | 4.0 | 0.00 | 0.07 | 0.00 | 69 | 1014.6 |
| 20260904201821 | 79 | 257 | 0.0 | 2.0 | 0.00 | 0.07 | 0.00 | 67 | 1014.5 |
| 20260904201321 | 79 | 291 | 0.0 | 3.0 | 0.00 | 0.07 | 0.00 | 67 | 1014.7 |
| 20260904200821 | 79 | 96 | 0.0 | 4.0 | 0.00 | 0.07 | 0.00 | 68 | 1014.8 |
| 20260904200321 | 79 | 265 | 1.0 | 7.0 | 0.00 | 0.07 | 0.00 | 67 | 1014.8 |
| 20260904195822 | 79 | 270 | 1.0 | 7.0 | 0.00 | 0.07 | 0.00 | 67 | 1014.9 |
| 20260904195322 | 80 | 233 | 1.0 | 8.0 | 0.00 | 0.07 | 0.00 | 65 | 1015.0 |
| 20260904194822 | 80 | 122 | 1.0 | 8.0 | 0.00 | 0.07 | 0.00 | 67 | 1015.0 |
| 20260904194321 | 80 | 342 | 1.0 | 8.0 | 0.00 | 0.07 | 0.00 | 65 | 1014.9 |
| 20260904193822 | 79 | 129 | 1.0 | 4.0 | 0.00 | 0.07 | 0.00 | 65 | 1014.9 |
| 20260904193322 | 80 | 112 | 1.0 | 8.0 | 0.00 | 0.07 | 0.00 | 64 | 1015.0 |
| 20260904193312 | 80 | 142 | 0.0 | 8.0 | 0.00 | 0.07 | 0.00 | 66 | 1015.1 |
| 20260904192543 | 80 | 234 | 0.0 | 2.0 | 0.00 | 0.07 | 0.00 | 65 | 1015.2 |
| 20260904191821 | 80 | 258 | 0.0 | 4.0 | 0.00 | 0.07 | 0.00 | 65 | 1015.1 |
| 20260904191322 | 80 | 286 | 1.0 | 7.0 | 0.00 | 0.07 | 0.00 | 65 | 1015.0 |
| 20260904190821 | 80 | 204 | 1.0 | 7.0 | 0.00 | 0.07 | 0.00 | 65 | 1015.2 |
| 20260904190804 | 80 | 123 | 0.0 | 5.0 | 0.00 | 0.07 | 0.00 | 67 | 1015.3 |
| 20260904185822 | 80 | 171 | 1.0 | 4.0 | 0.00 | 0.07 | 0.00 | 67 | 1015.3 |
| 20260904185320 | 80 | 251 | 1.0 | 4.0 | 0.00 | 0.07 | 0.00 | 66 | 1015.3 |
| 20260904184820 | 79 | 171 | 1.0 | 6.0 | 0.00 | 0.07 | 0.00 | 66 | 1015.3 |
| 20260904184319 | 79 | 263 | 1.0 | 6.0 | 0.00 | 0.07 | 0.00 | 67 | 1015.4 |
| 20260904183814 | 79 | 119 | 1.0 | 10.0 | 0.00 | 0.07 | 0.00 | 68 | 1015.4 |
| 20260904183313 | 79 | 111 | 1.0 | 10.0 | 0.00 | 0.07 | 0.00 | 66 | 1015.5 |
| 20260904182811 | 78 | 119 | 0.0 | 6.0 | 0.00 | 0.07 | 0.00 | 67 | 1015.7 |
| 20260904182532 | 78 | 280 | 0.0 | 6.0 | 0.00 | 0.07 | 0.00 | 67 | 1015.7 |
| 20260904181805 | 78 | 148 | 0.0 | 5.0 | 0.00 | 0.07 | 0.00 | 67 | 1015.9 |
| 20260904181519 | 78 | 247 | 0.0 | 5.0 | 0.00 | 0.07 | 0.00 | 67 | 1015.9 |
| 20260904180805 | 78 | 342 | 0.0 | 4.0 | 0.00 | 0.07 | 0.00 | 69 | 1016.0 |
| 20260904180246 | 78 | 263 | 0.0 | 3.0 | 0.00 | 0.07 | 0.00 | 69 | 1016.2 |
| 20260904180004 | 78 | 128 | 1.0 | 6.0 | 0.00 | 0.07 | 0.00 | 68 | 1016.2 |
| 20260904175234 | 78 | 290 | 1.0 | 8.0 | 0.00 | 0.07 | 0.00 | 67 | 1016.2 |
| 20260904174728 | 79 | 192 | 1.0 | 9.0 | 0.00 | 0.07 | 0.00 | 67 | 1016.3 |
| 20260904174223 | 79 | 128 | 0.0 | 7.0 | 0.00 | 0.07 | 0.00 | 69 | 1016.4 |
| 20260904173716 | 79 | 240 | 1.0 | 4.0 | 0.00 | 0.07 | 0.00 | 68 | 1016.5 |
| 20260904173211 | 79 | 308 | 1.0 | 7.0 | 0.00 | 0.07 | 0.00 | 67 | 1016.7 |
| 20260904172910 | 79 | 171 | 1.0 | 8.0 | 0.00 | 0.07 | 0.00 | 68 | 1016.7 |
| 20260904172903 | 79 | 15 | 1.0 | 7.0 | 0.00 | 0.07 | 0.00 | 67 | 1016.7 |
| 20260904171653 | 79 | 72 | 1.0 | 8.0 | 0.00 | 0.07 | 0.00 | 67 | 1016.8 |
| 20260904171148 | 78 | 278 | 1.0 | 8.0 | 0.00 | 0.07 | 0.00 | 67 | 1016.8 |
| 20260904170905 | 78 | 96 | 1.0 | 10.0 | 0.00 | 0.07 | 0.00 | 67 | 1016.6 |
| 20260904170134 | 79 | 131 | 1.0 | 10.0 | 0.00 | 0.07 | 0.00 | 66 | 1016.7 |
| 20260904165628 | 79 | 137 | 1.0 | 10.0 | 0.00 | 0.07 | 0.00 | 67 | 1016.7 |
| 20260904165352 | 79 | 252 | 0.0 | 7.0 | 0.00 | 0.07 | 0.00 | 67 | 1016.7 |
| 20260904164615 | 79 | 142 | 1.0 | 7.0 | 0.00 | 0.07 | 0.00 | 68 | 1016.8 |
| 20260904164331 | 78 | 104 | 2.0 | 9.0 | 0.00 | 0.07 | 0.00 | 67 | 1016.7 |
| 20260904163602 | 79 | 74 | 2.0 | 9.0 | 0.00 | 0.07 | 0.00 | 66 | 1016.7 |
| 20260904163057 | 79 | 32 | 1.0 | 8.0 | 0.00 | 0.07 | 0.00 | 67 | 1016.6 |
| 20260904162550 | 79 | 184 | 0.0 | 7.0 | 0.00 | 0.07 | 0.00 | 67 | 1016.6 |
| 20260904162057 | 78 | 57 | 1.0 | 6.0 | 0.00 | 0.07 | 0.00 | 68 | 1016.6 |
| 20260904161538 | 78 | 244 | 1.0 | 6.0 | 0.00 | 0.07 | 0.00 | 65 | 1016.7 |
| 20260904161039 | 78 | 254 | 0.0 | 5.0 | 0.00 | 0.07 | 0.00 | 67 | 1016.6 |
| 20260904160526 | 78 | 286 | 1.0 | 6.0 | 0.00 | 0.07 | 0.00 | 69 | 1016.6 |
| 20260904160503 | 77 | 288 | 1.0 | 6.0 | 0.00 | 0.07 | 0.00 | 68 | 1016.6 |
| 20260904155515 | 77 | 265 | 0.0 | 5.0 | 0.00 | 0.07 | 0.00 | 69 | 1016.7 |
| 20260904155209 | 77 | 306 | 0.0 | 0.0 | 0.00 | 0.07 | 0.00 | 70 | 1016.6 |
| 20260904155200 | 77 | 136 | 0.0 | 5.0 | 0.00 | 0.07 | 0.00 | 71 | 1016.6 |
| 20260904153957 | 76 | 215 | 0.0 | 1.0 | 0.00 | 0.07 | 0.00 | 73 | 1016.6 |
| 20260904153937 | 76 | 217 | 0.0 | 4.0 | 0.00 | 0.07 | 0.00 | 71 | 1016.6 |
| 20260904153430 | 76 | 159 | 0.0 | 5.0 | 0.00 | 0.07 | 0.00 | 72 | 1016.7 |
| 20260904152701 | 76 | 190 | 0.0 | 5.0 | 0.00 | 0.07 | 0.00 | 72 | 1016.7 |
| 20260904151932 | 75 | 121 | 0.0 | 3.0 | 0.00 | 0.07 | 0.00 | 72 | 1016.8 |
| 20260904151433 | 75 | 142 | 1.0 | 7.0 | 0.00 | 0.07 | 0.00 | 73 | 1016.8 |
| 20260904151147 | 75 | 88 | 1.0 | 7.0 | 0.00 | 0.07 | 0.00 | 72 | 1016.8 |
| 20260904150414 | 76 | 147 | 1.0 | 8.0 | 0.00 | 0.07 | 0.00 | 72 | 1016.8 |
| 20260904150134 | 76 | 94 | 1.0 | 8.0 | 0.00 | 0.07 | 0.00 | 72 | 1016.8 |
| 20260904145623 | 75 | 261 | 0.0 | 4.0 | 0.00 | 0.07 | 0.00 | 74 | 1016.9 |
| 20260904144856 | 75 | 104 | 0.0 | 4.0 | 0.00 | 0.07 | 0.00 | 74 | 1016.8 |
| 20260904144350 | 75 | 223 | 0.0 | 5.0 | 0.00 | 0.07 | 0.00 | 75 | 1016.8 |
| 20260904143844 | 75 | 199 | 1.0 | 5.0 | 0.00 | 0.07 | 0.00 | 74 | 1016.8 |
| 20260904143339 | 74 | 90 | 0.0 | 4.0 | 0.00 | 0.07 | 0.00 | 74 | 1016.7 |
| 20260904142833 | 74 | 172 | 0.0 | 2.0 | 0.00 | 0.07 | 0.00 | 74 | 1016.6 |
| 20260904142326 | 74 | 317 | 0.0 | 4.0 | 0.00 | 0.07 | 0.00 | 75 | 1016.7 |
| 20260904141833 | 74 | 274 | 0.0 | 4.0 | 0.00 | 0.07 | 0.00 | 74 | 1016.6 |
| 20260904141538 | 74 | 306 | 0.0 | 1.0 | 0.00 | 0.07 | 0.00 | 77 | 1016.6 |
| 20260904140808 | 74 | 304 | 0.0 | 3.0 | 0.00 | 0.07 | 0.00 | 75 | 1016.7 |
| 20260904140303 | 74 | 77 | 0.0 | 3.0 | 0.00 | 0.07 | 0.00 | 77 | 1016.8 |
| 20260904135756 | 73 | 267 | 0.0 | 4.0 | 0.00 | 0.07 | 0.00 | 79 | 1016.9 |
| 20260904135251 | 73 | 251 | 0.0 | 4.0 | 0.00 | 0.07 | 0.00 | 78 | 1017.0 |
| 20260904134744 | 72 | 282 | 0.0 | 5.0 | 0.00 | 0.07 | 0.00 | 79 | 1016.9 |
| 20260904134239 | 72 | 282 | 0.0 | 5.0 | 0.00 | 0.07 | 0.00 | 79 | 1016.7 |
| 20260904133733 | 72 | 151 | 0.0 | 3.0 | 0.00 | 0.07 | 0.00 | 78 | 1016.7 |
| 20260904133232 | 72 | 153 | 0.0 | 4.0 | 0.00 | 0.07 | 0.00 | 80 | 1016.6 |
| 20260904132732 | 71 | 90 | 0.0 | 6.0 | 0.00 | 0.07 | 0.00 | 80 | 1016.7 |
| 20260904132233 | 71 | 180 | 1.0 | 6.0 | 0.00 | 0.07 | 0.00 | 80 | 1016.7 |
| 20260904131951 | 71 | 171 | 0.0 | 4.0 | 0.00 | 0.07 | 0.00 | 82 | 1016.7 |
| 20260904131234 | 71 | 135 | 1.0 | 7.0 | 0.00 | 0.07 | 0.00 | 82 | 1016.8 |
| 20260904130733 | 71 | 159 | 0.0 | 7.0 | 0.00 | 0.07 | 0.00 | 82 | 1016.8 |